When you browse on this site, cookies collect data to enhance your experience and personalize the content and advertising you see.
Visit our Privacy Policy to learn more. By continuing to use the site, you agree to this use of cookies and data.
  • In United Kingdom
  • List of Countries
  • For 7 days
  • Water Temperature
  • Satellite Maps
  • Weather Map
  • Weather Widgets
  • user-avatar
    Login

    Hourly Weather Goiania

    Today, 17 November, Saturday

    Time Temperature Precipitation Wind Pressure Humidity
    00:00 +24°C° 1.9 mm 1 mps 698 mmHg 90%
    01:00 +24°C° 0.8 mm 1 mps 697 mmHg 91%
    02:00 +24°C° 0.8 mm 1 mps 697 mmHg 91%
    03:00 +24°C° 0.8 mm 1 mps 697 mmHg 92%
    04:00 +24°C° 0.2 mm 2 mps 697 mmHg 93%
    05:00 +23°C° 0.2 mm 2 mps 697 mmHg 93%
    06:00 +23°C° 0.2 mm 2 mps 697 mmHg 94%
    07:00 +24°C° 0.4 mm 3 mps 698 mmHg 92%
    08:00 +24°C° 0.4 mm 3 mps 698 mmHg 91%
    09:00 +25°C° 0.4 mm 4 mps 699 mmHg 89%
    10:00 +25°C° 0.5 mm 4 mps 699 mmHg 89%
    11:00 +25°C° 0.5 mm 4 mps 699 mmHg 89%
    12:00 +25°C° 0.5 mm 4 mps 698 mmHg 89%
    13:00 +26°C° 0.6 mm 4 mps 698 mmHg 88%
    14:00 +26°C° 0.6 mm 4 mps 698 mmHg 86%
    15:00 +26°C° 0.6 mm 3 mps 697 mmHg 85%
    16:00 +26°C° 0.5 mm 3 mps 697 mmHg 87%
    17:00 +25°C° 0.5 mm 3 mps 697 mmHg 89%
    18:00 +25°C° 0.5 mm 2 mps 697 mmHg 91%
    19:00 +24°C° 0.1 mm 2 mps 697 mmHg 92%
    20:00 +24°C° 0.1 mm 2 mps 698 mmHg 93%
    21:00 +23°C° 0.1 mm 2 mps 698 mmHg 93%
    22:00 +22°C° 0.4 mm 3 mps 698 mmHg 93%
    23:00 +22°C° 0.4 mm 3 mps 699 mmHg 94%

    Tomorrow, 18 November, Sunday

    Time Temperature Precipitation Wind Pressure Humidity
    00:00 +22°C° 0.4 mm 3 mps 699 mmHg 94%
    01:00 +22°C° 0.7 mm 3 mps 698 mmHg 94%
    02:00 +22°C° 0.7 mm 3 mps 698 mmHg 94%
    03:00 +21°C° 0.7 mm 4 mps 698 mmHg 94%
    04:00 +21°C° 0.2 mm 3 mps 698 mmHg 94%
    05:00 +21°C° 0.2 mm 3 mps 698 mmHg 94%
    06:00 +21°C° 0.2 mm 3 mps 698 mmHg 94%
    07:00 +21°C° 0.5 mm 3 mps 698 mmHg 93%
    08:00 +21°C° 0.5 mm 3 mps 699 mmHg 93%
    09:00 +22°C° 0.5 mm 3 mps 700 mmHg 92%
    10:00 +22°C° 0.8 mm 3 mps 700 mmHg 93%
    11:00 +21°C° 0.8 mm 3 mps 700 mmHg 93%
    12:00 +21°C° 0.8 mm 3 mps 700 mmHg 93%
    13:00 +22°C° 0.4 mm 3 mps 699 mmHg 93%
    14:00 +22°C° 0.4 mm 3 mps 698 mmHg 92%
    15:00 +22°C° 0.4 mm 3 mps 697 mmHg 91%
    16:00 +22°C° 0.1 mm 3 mps 697 mmHg 91%
    17:00 +22°C° 0.1 mm 3 mps 697 mmHg 91%
    18:00 +23°C° 0.1 mm 2 mps 697 mmHg 91%
    19:00 +23°C° 0.5 mm 2 mps 698 mmHg 92%
    20:00 +23°C° 0.5 mm 2 mps 698 mmHg 93%
    21:00 +21°C° 0.5 mm 2 mps 699 mmHg 93%
    22:00 +21°C° 0.4 mm 2 mps 699 mmHg 93%
    23:00 +21°C° 0.4 mm 2 mps 699 mmHg 93%

    Day after tomorrow, 19 November, Monday

    Time Temperature Precipitation Wind Pressure Humidity
    00:00 +21°C° 0.4 mm 2 mps 699 mmHg 93%
    01:00 +21°C° 0.1 mm 2 mps 698 mmHg 93%
    02:00 +21°C° 0.1 mm 2 mps 697 mmHg 94%
    03:00 +21°C° 0.1 mm 2 mps 697 mmHg 94%
    04:00 +21°C° 0 mm 2 mps 697 mmHg 94%
    05:00 +21°C° 0 mm 2 mps 697 mmHg 94%
    06:00 +21°C° 0 mm 2 mps 697 mmHg 93%
    07:00 +23°C° 0 mm 2 mps 698 mmHg 91%
    08:00 +24°C° 0 mm 2 mps 698 mmHg 88%
    09:00 +25°C° 0 mm 3 mps 699 mmHg 85%
    10:00 +26°C° 0.5 mm 3 mps 698 mmHg 82%
    11:00 +27°C° 0.5 mm 3 mps 698 mmHg 78%
    12:00 +28°C° 0.5 mm 3 mps 698 mmHg 74%
    13:00 +28°C° 1.4 mm 3 mps 698 mmHg 76%
    14:00 +28°C° 1.4 mm 3 mps 697 mmHg 77%
    15:00 +28°C° 1.4 mm 3 mps 696 mmHg 78%
    16:00 +27°C° 1.4 mm 3 mps 696 mmHg 82%
    17:00 +26°C° 1.4 mm 2 mps 696 mmHg 86%
    18:00 +25°C° 1.4 mm 2 mps 696 mmHg 90%
    19:00 +25°C° 1.1 mm 2 mps 696 mmHg 91%
    20:00 +24°C° 1.1 mm 2 mps 697 mmHg 92%
    21:00 +24°C° 1.1 mm 2 mps 697 mmHg 93%
    22:00 +23°C° 1.1 mm 2 mps 698 mmHg 93%
    23:00 +23°C° 1.1 mm 1 mps 698 mmHg 93%

    20 November, Tuesday

    Time Temperature Precipitation Wind Pressure Humidity
    00:00 +23°C° 1.1 mm 1 mps 698 mmHg 94%
    01:00 +23°C° 1.5 mm 1 mps 697 mmHg 94%
    02:00 +23°C° 1.5 mm 1 mps 697 mmHg 94%
    03:00 +23°C° 1.5 mm 1 mps 697 mmHg 94%
    04:00 +23°C° 0.8 mm 1 mps 697 mmHg 94%
    05:00 +23°C° 0.8 mm 1 mps 697 mmHg 94%
    06:00 +23°C° 0.8 mm 1 mps 697 mmHg 94%
    07:00 +24°C° 0.5 mm 1 mps 698 mmHg 91%
    08:00 +25°C° 0.5 mm 1 mps 699 mmHg 88%
    09:00 +25°C° 0.5 mm 1 mps 699 mmHg 86%
    10:00 +25°C° 1.1 mm 1 mps 699 mmHg 86%
    11:00 +26°C° 1.1 mm 1 mps 699 mmHg 87%
    12:00 +26°C° 1.1 mm 1 mps 699 mmHg 87%
    13:00 +25°C° 1.1 mm 1 mps 698 mmHg 87%
    14:00 +25°C° 1.1 mm 1 mps 698 mmHg 88%
    15:00 +25°C° 1.1 mm 1 mps 697 mmHg 88%
    16:00 +25°C° 0.7 mm 1 mps 697 mmHg 90%
    17:00 +24°C° 0.7 mm 1 mps 697 mmHg 91%
    18:00 +24°C° 0.7 mm 1 mps 697 mmHg 93%
    19:00 +23°C° 0.7 mm 1 mps 698 mmHg 94%
    20:00 +23°C° 0.7 mm 1 mps 698 mmHg 94%
    21:00 +23°C° 0.7 mm 2 mps 698 mmHg 95%
    22:00 +23°C° 1.9 mm 1 mps 698 mmHg 95%
    23:00 +23°C° 1.9 mm 1 mps 699 mmHg 95%

    21 November, Wednesday

    Time Temperature Precipitation Wind Pressure Humidity
    00:00 +23°C° 1.9 mm 1 mps 699 mmHg 96%
    01:00 +21°C° 2.2 mm 2 mps 698 mmHg 95%
    02:00 +21°C° 2.2 mm 2 mps 698 mmHg 95%
    03:00 +21°C° 2.2 mm 2 mps 697 mmHg 95%
    04:00 +21°C° 1.2 mm 2 mps 698 mmHg 95%
    05:00 +21°C° 1.2 mm 3 mps 698 mmHg 95%
    06:00 +21°C° 1.2 mm 3 mps 698 mmHg 95%
    07:00 +21°C° 0.8 mm 3 mps 699 mmHg 94%
    08:00 +21°C° 0.8 mm 3 mps 699 mmHg 94%
    09:00 +21°C° 0.8 mm 3 mps 700 mmHg 94%
    10:00 +22°C° 0.9 mm 3 mps 699 mmHg 94%
    11:00 +22°C° 0.9 mm 3 mps 699 mmHg 93%
    12:00 +22°C° 0.9 mm 3 mps 699 mmHg 93%
    13:00 +22°C° 0.9 mm 3 mps 698 mmHg 93%
    14:00 +24°C° 0.9 mm 2 mps 698 mmHg 92%
    15:00 +24°C° 0.9 mm 2 mps 698 mmHg 91%
    16:00 +23°C° 1.7 mm 2 mps 698 mmHg 93%
    17:00 +23°C° 1.7 mm 2 mps 698 mmHg 94%
    18:00 +21°C° 1.7 mm 2 mps 698 mmHg 95%
    19:00 +21°C° 1.5 mm 2 mps 698 mmHg 95%
    20:00 +21°C° 1.5 mm 2 mps 699 mmHg 95%
    21:00 +21°C° 1.5 mm 3 mps 699 mmHg 95%
    22:00 +21°C° 0.8 mm 2 mps 699 mmHg 95%
    23:00 +20°C° 0.8 mm 2 mps 699 mmHg 95%

    22 November, Thursday

    Time Temperature Precipitation Wind Pressure Humidity
    00:00 +20°C° 0.8 mm 2 mps 698 mmHg 95%
    01:00 +20°C° 1.5 mm 2 mps 698 mmHg 95%
    02:00 +20°C° 1.5 mm 3 mps 697 mmHg 95%
    03:00 +20°C° 1.5 mm 3 mps 697 mmHg 94%
    04:00 +20°C° 0.5 mm 3 mps 697 mmHg 94%
    05:00 +20°C° 0.5 mm 3 mps 697 mmHg 94%
    06:00 +20°C° 0.5 mm 3 mps 698 mmHg 94%
    07:00 +20°C° 0.4 mm 3 mps 698 mmHg 94%
    08:00 +20°C° 0.4 mm 3 mps 698 mmHg 94%
    09:00 +21°C° 0.4 mm 3 mps 699 mmHg 93%
    10:00 +21°C° 0.7 mm 3 mps 699 mmHg 94%
    11:00 +21°C° 0.7 mm 2 mps 698 mmHg 94%
    12:00 +21°C° 0.7 mm 2 mps 698 mmHg 95%
    13:00 +21°C° 0.4 mm 2 mps 698 mmHg 94%
    14:00 +21°C° 0.4 mm 2 mps 697 mmHg 93%
    15:00 +23°C° 0.4 mm 2 mps 697 mmHg 92%
    16:00 +23°C° 0.2 mm 2 mps 697 mmHg 92%
    17:00 +21°C° 0.2 mm 2 mps 697 mmHg 93%
    18:00 +21°C° 0.2 mm 2 mps 697 mmHg 93%
    19:00 +21°C° 0.2 mm 2 mps 697 mmHg 94%
    20:00 +21°C° 0.2 mm 3 mps 697 mmHg 94%
    21:00 +21°C° 0.2 mm 3 mps 698 mmHg 94%
    22:00 +20°C° 0.4 mm 3 mps 698 mmHg 95%
    23:00 +20°C° 0.4 mm 2 mps 697 mmHg 95%
    Show more